TimeCST,TemperatureF,Dew PointF,Humidity,Sea Level PressureIn,VisibilityMPH,Wind Direction,Wind SpeedMPH,Gust SpeedMPH,PrecipitationIn,Events,Conditions,WindDirDegrees,DateUTC
12:53 AM,52.0,36.0,54,29.77,10.0,SSW,16.1,26.5,N/A,,Clear,200,2013-12-19 06:53:00
1:53 AM,52.0,37.9,59,29.75,10.0,SSW,19.6,28.8,N/A,,Clear,200,2013-12-19 07:53:00
2:53 AM,51.1,39.9,66,29.75,10.0,SSW,13.8,23.0,N/A,,Clear,200,2013-12-19 08:53:00
3:53 AM,51.1,41.0,68,29.74,10.0,SSW,15.0,-,N/A,,Clear,200,2013-12-19 09:53:00
4:53 AM,50.0,41.0,71,29.74,10.0,South,13.8,-,N/A,,Clear,190,2013-12-19 10:53:00
5:53 AM,50.0,41.0,71,29.74,10.0,South,12.7,-,N/A,,Clear,190,2013-12-19 11:53:00
6:53 AM,48.9,41.0,74,29.75,10.0,South,8.1,-,N/A,,Clear,190,2013-12-19 12:53:00
7:53 AM,48.9,42.1,77,29.75,10.0,South,9.2,-,N/A,,Clear,190,2013-12-19 13:53:00
8:53 AM,51.1,43.0,74,29.76,10.0,South,10.4,-,N/A,,Clear,180,2013-12-19 14:53:00
9:53 AM,53.1,44.1,71,29.77,10.0,SSW,18.4,26.5,N/A,,Scattered Clouds,200,2013-12-19 15:53:00
10:28 AM,54.0,45.0,72,29.77,10.0,SSW,17.3,24.2,N/A,,Overcast,200,2013-12-19 16:28:00
10:53 AM,54.0,46.0,75,29.77,10.0,SSW,15.0,25.3,N/A,,Overcast,200,2013-12-19 16:53:00
11:53 AM,54.0,46.9,77,29.75,10.0,SSW,13.8,-,N/A,,Overcast,200,2013-12-19 17:53:00
12:53 PM,54.0,46.9,77,29.69,10.0,South,10.4,-,N/A,,Overcast,180,2013-12-19 18:53:00
1:53 PM,55.0,48.0,77,29.66,10.0,South,12.7,-,N/A,,Overcast,190,2013-12-19 19:53:00
2:13 PM,55.0,48.0,77,29.67,10.0,South,8.1,-,N/A,,Overcast,190,2013-12-19 20:13:00
2:53 PM,55.0,48.0,77,29.65,10.0,South,6.9,-,N/A,,Overcast,180,2013-12-19 20:53:00
3:53 PM,55.9,48.0,75,29.65,10.0,South,10.4,-,N/A,,Overcast,190,2013-12-19 21:53:00
4:53 PM,55.0,48.0,77,29.66,10.0,South,8.1,-,N/A,,Overcast,180,2013-12-19 22:53:00
5:53 PM,54.0,48.0,80,29.67,10.0,South,8.1,-,N/A,,Overcast,190,2013-12-19 23:53:00
6:00 PM,54.0,48.0,80,29.66,10.0,South,9.2,-,N/A,,Overcast,180,2013-12-20 00:00:00
6:53 PM,54.0,48.0,80,29.66,10.0,South,8.1,-,N/A,,Overcast,190,2013-12-20 00:53:00
7:53 PM,54.0,48.9,83,29.66,10.0,South,8.1,-,N/A,,Overcast,180,2013-12-20 01:53:00
8:53 PM,55.0,48.9,80,29.67,10.0,South,6.9,-,N/A,,Overcast,190,2013-12-20 02:53:00
9:53 PM,55.0,50.0,83,29.67,10.0,South,10.4,-,N/A,,Overcast,190,2013-12-20 03:53:00
10:53 PM,55.0,50.0,83,29.66,10.0,SSW,6.9,-,N/A,,Overcast,200,2013-12-20 04:53:00
11:44 PM,55.0,50.0,83,29.66,10.0,WNW,3.5,-,N/A,,Overcast,290,2013-12-20 05:44:00
11:53 PM,54.0,48.9,83,29.66,10.0,NNW,11.5,-,N/A,,Overcast,330,2013-12-20 05:53:00